THOR ABLESTAR DEB, 17648

Orbit data source: Space-Track

THOR ABLESTAR DEB, 17648 is space debris in LEO originally from a launch on Thu, 29 Jun 1961 UTC launched from the Air Force Eastern Test Range (AFETR). Debris objects in space refer to the collection of defunct objects orbiting the Earth. Examples of debris include non-operational satellites, rocket bodies, and fragments generated from explosions, collisions, or faulty payload assembly.

Loading next visibility...
Identifier
17648, 1961-015LH
Orbit
LEO
Country
Flag of USUS
Related business
Manufacturer
Unknown
Mission
Spacecraft
Bus & Motor
Unknown
Mass
Unknown
Launch date (UTC)
1961-06-29 (65 years ago)
Launch vehicle
Unknown
Launch site
Air Force Eastern Test Range (AFETR)
Object type
Payload
Rocket body
Debris
Shape & HBR
Unknown shape, 0.1 m
Radar Cross Section
Small (<0.1 m²)

Expand to show TLE details & history
Last TLE update: 2 days ago

TLE from 2 days ago
0 THOR ABLESTAR DEB
1 17648U 61015LH  26103.60983918  .00002113  00000-0  85054-3 0  9997
2 17648  65.7304 298.1314 0059094 188.7241 171.2828 14.29213666747893
Epoch: 2026-04-13T14:38Z
TLE epoch observation values (Epoch: 2026-04-13T14:38:10.105Z)
Latitude
0.00005°
Longitude
-123.20866°
Altitude
838.296 km
Speed
7.412 km/s
True Right ascension
19h 52m 31s
True Declination
0° 00' 00"
Sunlit
Object was in daylight at epoch
Visualization orbit readout
Latitude
Unknown
Longitude
Unknown
Altitude
Unknown
Speed
Unknown
Apparent Right ascension
Unknown
Apparent Declination
Unknown
Sunlit
N/A
Visualization observer readout
Local Sidereal Time
20:51:21
Azimuth
Unknown
Elevation
Unknown
Doppler factor
Unknown
Orbital elements
Apogee altitude
835.227 km
Perigee altitude
750.475 km
Semi-major axis
7,170.988 km
Eccentricity
0.00591
Inclination
65.7304°
RAAN
298.1314°
Arg. of periapsis
188.7241°
True anomaly
171.38469°
Mean anomaly
171.2828°
Eccentric anomaly
171.33382°
Mean motion
3.57417 °/min
Orbital period
100.72 mins
BSTAR
0.00085054
Loading maneuver chart data...
Computing Atmospheric mass density...

Documentation

Showing up to 5 results
|